Find SAT-59745

NORAD ID: 59745 Owner: SpaceX Operational

Live Position

Loading 3D Globe...

About SAT-59745

Description loading...

Upcoming Passes

Passes for default location (London). Set your location on the main map for personalized predictions.

Altitude History

Loading altitude history...

Two-Line Element Set

1 25544U 98067A 24001.50000000 .00002182 00000-0 42575-4 0 9990
2 25544 51.6461 339.7939 0001397 83.2776 276.8615 15.48919103123456
Epoch: Jan 1, 2024 • Age: N/A

Current Status

Position data unavailable

Most Searched